Flag for Spain Weather past 2 weeks in Almería, Spain

Now
58 °F

Cool.


Feels Like: 57 °F
Forecast: 53 / 66 °F
Wind: 6 mph from West

Location: Almeria / Aeropuerto

Current Time: Jan 30, 2015 at 1:45:47 AM

Latest Report: Jan 30, 2015 at 1:00 AM


Visibility: N/A

Pressure: 29.80 "Hg

Humidity: 74%

Dew point: 50 °F

Location of AlmeríaLocation

Historic Weather in Almería — Graph

°F

Almería temperature yesterday

Maximum temperature yesterday: 64 °F (at 4:00 PM)
Minimum temperature yesterday: 46 °F (at 7:00 AM)
Average temperature yesterday: 54 °F

Past Weeks' High & Low Weather Summary

 TemperatureHumidityPressure
High65 °F (Jan 30, 12:00 AM)93% (Jan 15, 8:00 AM)30.36 "Hg (Jan 15, 8:00 AM)
Low44 °F (Jan 18, 7:00 AM)20% (Jan 23, 5:00 PM)29.62 "Hg (Jan 19, 6:00 AM)
Average55 °F57%30.07 "Hg
* Reported Midnight between Jan 14 and Jan 15 — Midnight between Jan 29 and Jan 30, Almería, Weather by CustomWeather, © 2014

Note: Actual official high and low records may vary slightly from our data, if they occured in-between our weather recording intervals... More about our weather records

Advertising

Almería weather history for previous 24 hours

 ConditionsComfort  
Time TempWeatherWind HumidityBarometerVisibility
12:00 AM
Jan 30
65 °FMild.10 mph58%29.83 "HgN/A
11:00 PM
Jan 29
62 °FCool.6 mph70%29.83 "HgN/A
9:00 PM58 °FCool.3 mph88%29.85 "HgN/A
8:00 PM60 °FCool.3 mph80%29.85 "HgN/A
7:00 PM60 °FLow clouds.9 mph78%29.85 "Hg9 mi
6:00 PM61 °FCool.16 mph80%29.85 "HgN/A
5:00 PM62 °FCool.16 mph77%29.87 "HgN/A
4:00 PM64 °FPartly sunny.16 mph55%29.90 "Hg19 mi
3:00 PM63 °FMild.14 mph63%29.94 "HgN/A
2:00 PM62 °FCool.13 mph74%29.98 "HgN/A
1:00 PM60 °FScattered clouds.7 mph68%30.03 "Hg22 mi
12:00 PM59 °FCool.5 mph69%30.07 "HgN/A
11:00 AM58 °FCool.5 mph65%30.08 "HgN/A
10:00 AM54 °FPassing clouds.5 mph44%30.08 "Hg19 mi
9:00 AM47 °FCool.2 mph65%30.09 "HgN/A
8:00 AM48 °FCool.6 mph56%30.07 "HgN/A
7:00 AM46 °FClear.2 mph71%30.07 "Hg19 mi
6:00 AM46 °FCool.1 mph84%30.08 "HgN/A
5:00 AM47 °FCool.6 mph89%30.09 "HgN/A
4:00 AM46 °FCool.3 mph86%30.10 "HgN/A
3:00 AM47 °FCool.5 mph86%30.11 "HgN/A
2:00 AM48 °FCool.3 mph84%30.14 "HgN/A
1:00 AM49 °FCool.2 mph82%30.15 "HgN/A
Weather by CustomWeather, © 2014

See weather overviewHow to use our weather pages